Time,TemperatureF,DewpointF,PressureIn,WindDirection,WindDirectionDegrees,WindSpeedMPH,WindSpeedGustMPH,Humidity,HourlyPrecipIn,Conditions,Clouds,dailyrainin,SoftwareType,DateUTC
2013-03-31 00:02:00,25.0,25.0,-100.00,SE,141,2.0,3.0,99,0.00,,,-99.99,,2013-03-31 06:02:00,
2013-03-31 00:12:00,25.0,25.0,-100.00,SE,141,2.0,3.0,99,0.00,,,-99.99,,2013-03-31 06:12:00,
2013-03-31 00:22:00,25.0,25.0,-100.00,South,172,2.0,3.0,99,0.00,,,-99.99,,2013-03-31 06:22:00,
2013-03-31 00:32:00,24.0,24.0,-100.00,ESE,113,3.0,3.0,99,0.00,,,-99.99,,2013-03-31 06:32:00,
2013-03-31 00:42:00,24.0,24.0,-100.00,ESE,113,3.0,3.0,99,0.00,,,-99.99,,2013-03-31 06:42:00,
2013-03-31 00:52:00,24.0,24.0,-100.00,ESE,118,2.0,4.0,98,0.00,,,-99.99,,2013-03-31 06:52:00,
2013-03-31 01:02:00,24.0,24.0,-100.00,ESE,117,5.0,7.0,99,0.00,,,-99.99,,2013-03-31 07:02:00,
2013-03-31 01:12:00,24.0,24.0,-100.00,ESE,117,5.0,7.0,99,0.00,,,-99.99,,2013-03-31 07:12:00,
2013-03-31 01:22:00,25.0,25.0,-100.00,ESE,114,5.0,5.0,99,0.00,,,-99.99,,2013-03-31 07:22:00,
2013-03-31 01:32:00,24.0,24.0,-100.00,SE,132,2.0,3.0,99,0.00,,,-99.99,,2013-03-31 07:32:00,
2013-03-31 01:42:00,24.0,24.0,-100.00,SE,132,2.0,3.0,99,0.00,,,-99.99,,2013-03-31 07:42:00,
2013-03-31 01:52:00,23.0,23.0,-100.00,SE,125,3.0,4.0,99,0.00,,,-99.99,,2013-03-31 07:52:00,
2013-03-31 02:02:00,23.0,23.0,-100.00,SE,126,4.0,5.0,99,0.00,,,-99.99,,2013-03-31 08:02:00,
2013-03-31 02:12:00,23.0,23.0,-100.00,SE,126,4.0,5.0,99,0.00,,,-99.99,,2013-03-31 08:12:00,
2013-03-31 02:22:00,22.0,22.0,-100.00,ESE,117,4.0,6.0,99,0.00,,,-99.99,,2013-03-31 08:22:00,
2013-03-31 02:32:00,21.0,21.0,-100.00,ESE,116,5.0,6.0,99,0.00,,,-99.99,,2013-03-31 08:32:00,
2013-03-31 02:42:00,21.0,21.0,-100.00,ESE,116,5.0,6.0,99,0.00,,,-99.99,,2013-03-31 08:42:00,
2013-03-31 02:52:00,21.0,21.0,-100.00,ESE,117,5.0,6.0,99,0.00,,,-99.99,,2013-03-31 08:52:00,
2013-03-31 03:02:00,22.0,22.0,-100.00,ESE,122,3.0,5.0,99,0.00,,,-99.99,,2013-03-31 09:02:00,
2013-03-31 03:12:00,22.0,22.0,-100.00,ESE,122,3.0,5.0,99,0.00,,,-99.99,,2013-03-31 09:12:00,
2013-03-31 03:22:00,21.0,21.0,-100.00,SE,131,4.0,5.0,99,0.00,,,-99.99,,2013-03-31 09:22:00,
2013-03-31 03:33:00,20.0,20.0,-100.00,ESE,123,4.0,5.0,99,0.00,,,-99.99,,2013-03-31 09:33:00,
2013-03-31 03:42:00,20.0,20.0,-100.00,ESE,123,4.0,5.0,99,0.00,,,-99.99,,2013-03-31 09:42:00,
2013-03-31 03:53:00,19.0,19.0,-100.00,ESE,113,4.0,5.0,99,0.00,,,-99.99,,2013-03-31 09:53:00,
2013-03-31 04:03:00,18.0,18.0,-100.00,SE,130,3.0,4.0,99,0.00,,,-99.99,,2013-03-31 10:03:00,
2013-03-31 04:13:00,18.0,18.0,-100.00,SE,130,3.0,4.0,99,0.00,,,-99.99,,2013-03-31 10:13:00,
2013-03-31 04:23:00,18.0,18.0,-100.00,ESE,123,4.0,5.0,99,0.00,,,-99.99,,2013-03-31 10:23:00,
2013-03-31 04:32:00,18.0,18.0,-100.00,ESE,119,4.0,5.0,99,0.00,,,-99.99,,2013-03-31 10:32:00,
2013-03-31 04:42:00,18.0,18.0,-100.00,ESE,119,4.0,5.0,99,0.00,,,-99.99,,2013-03-31 10:42:00,
2013-03-31 04:52:00,18.0,18.0,-100.00,ESE,119,5.0,7.0,99,0.00,,,-99.99,,2013-03-31 10:52:00,
2013-03-31 05:02:00,18.0,18.0,-100.00,ESE,112,4.0,5.0,99,0.00,,,-99.99,,2013-03-31 11:02:00,
2013-03-31 05:12:00,18.0,18.0,-100.00,ESE,112,4.0,5.0,99,0.00,,,-99.99,,2013-03-31 11:12:00,
2013-03-31 05:23:00,18.0,18.0,-100.00,SE,124,3.0,3.0,99,0.00,,,-99.99,,2013-03-31 11:23:00,
2013-03-31 05:32:00,18.0,18.0,-100.00,ESE,121,5.0,7.0,99,0.00,,,-99.99,,2013-03-31 11:32:00,
2013-03-31 05:42:00,18.0,18.0,-100.00,ESE,121,5.0,7.0,99,0.00,,,-99.99,,2013-03-31 11:42:00,
2013-03-31 05:52:00,18.0,18.0,-100.00,SE,126,5.0,7.0,99,0.00,,,-99.99,,2013-03-31 11:52:00,
2013-03-31 06:03:00,18.0,18.0,-100.00,ESE,115,4.0,5.0,99,0.00,,,-99.99,,2013-03-31 12:03:00,
2013-03-31 06:12:00,18.0,18.0,-100.00,ESE,115,4.0,5.0,99,0.00,,,-99.99,,2013-03-31 12:12:00,
2013-03-31 06:22:00,18.0,18.0,-100.00,SE,130,3.0,5.0,99,0.00,,,-99.99,,2013-03-31 12:22:00,
2013-03-31 06:33:00,17.0,17.0,-100.00,SE,124,4.0,7.0,99,0.00,,,-99.99,,2013-03-31 12:33:00,
2013-03-31 06:42:00,17.0,17.0,-100.00,SE,124,4.0,7.0,99,0.00,,,-99.99,,2013-03-31 12:42:00,
2013-03-31 06:52:00,16.0,16.0,-100.00,SE,128,4.0,6.0,99,0.00,,,-99.99,,2013-03-31 12:52:00,
2013-03-31 07:02:00,16.0,16.0,-100.00,SE,134,3.0,6.0,99,0.00,,,-99.99,,2013-03-31 13:02:00,
2013-03-31 07:12:00,16.0,16.0,-100.00,SE,134,3.0,6.0,99,0.00,,,-99.99,,2013-03-31 13:12:00,
2013-03-31 07:22:00,16.0,16.0,-100.00,SE,124,6.0,8.0,99,0.00,,,-99.99,,2013-03-31 13:22:00,
2013-03-31 07:32:00,16.0,16.0,-100.00,ESE,117,5.0,7.0,99,0.00,,,-99.99,,2013-03-31 13:32:00,
2013-03-31 07:42:00,16.0,16.0,-100.00,ESE,117,5.0,7.0,99,0.00,,,-99.99,,2013-03-31 13:42:00,
2013-03-31 07:53:00,17.0,17.0,-100.00,SE,127,3.0,5.0,99,0.00,,,-99.99,,2013-03-31 13:53:00,
2013-03-31 08:02:00,19.0,19.0,-100.00,ESE,123,3.0,5.0,99,0.00,,,-99.99,,2013-03-31 14:02:00,
2013-03-31 08:12:00,19.0,19.0,-100.00,ESE,123,3.0,5.0,99,0.00,,,-99.99,,2013-03-31 14:12:00,
2013-03-31 08:22:00,22.0,21.0,-100.00,SE,124,4.0,7.0,97,0.00,,,-99.99,,2013-03-31 14:22:00,
2013-03-31 08:32:00,23.0,22.0,-100.00,ESE,120,5.0,7.0,97,0.00,,,-99.99,,2013-03-31 14:32:00,
2013-03-31 08:42:00,23.0,22.0,-100.00,ESE,120,5.0,7.0,97,0.00,,,-99.99,,2013-03-31 14:42:00,
2013-03-31 08:52:00,25.0,24.0,-100.00,ESE,119,5.0,7.0,95,0.00,,,-99.99,,2013-03-31 14:52:00,
2013-03-31 09:02:00,27.0,25.0,-100.00,SE,125,5.0,7.0,91,0.00,,,-99.99,,2013-03-31 15:02:00,
2013-03-31 09:12:00,27.0,25.0,-100.00,SE,125,5.0,7.0,91,0.00,,,-99.99,,2013-03-31 15:12:00,
2013-03-31 09:22:00,28.0,24.0,-100.00,SE,128,4.0,5.0,86,0.00,,,-99.99,,2013-03-31 15:22:00,
2013-03-31 09:33:00,30.0,24.0,-100.00,SE,131,4.0,5.0,79,0.00,,,-99.99,,2013-03-31 15:33:00,
2013-03-31 09:43:00,30.0,24.0,-100.00,SE,131,4.0,5.0,79,0.00,,,-99.99,,2013-03-31 15:43:00,
2013-03-31 09:54:00,32.0,26.0,-100.00,SSE,150,3.0,5.0,79,0.00,,,-99.99,,2013-03-31 15:54:00,
2013-03-31 10:03:00,34.0,28.0,-100.00,SE,126,3.0,5.0,78,0.00,,,-99.99,,2013-03-31 16:03:00,
2013-03-31 10:13:00,34.0,28.0,-100.00,SE,126,3.0,5.0,78,0.00,,,-99.99,,2013-03-31 16:13:00,
2013-03-31 10:23:00,37.0,26.0,-100.00,SSE,157,3.0,4.0,64,0.00,,,-99.99,,2013-03-31 16:23:00,
2013-03-31 10:33:00,40.0,29.0,-100.00,South,178,1.0,3.0,65,0.00,,,-99.99,,2013-03-31 16:33:00,
2013-03-31 10:42:00,40.0,29.0,-100.00,South,178,1.0,3.0,65,0.00,,,-99.99,,2013-03-31 16:42:00,
2013-03-31 10:53:00,41.0,30.0,-100.00,SSW,195,2.0,4.0,65,0.00,,,-99.99,,2013-03-31 16:53:00,
2013-03-31 11:02:00,46.0,30.0,-100.00,South,176,1.0,4.0,53,0.00,,,-99.99,,2013-03-31 17:02:00,
2013-03-31 11:12:00,46.0,30.0,-100.00,South,176,1.0,4.0,53,0.00,,,-99.99,,2013-03-31 17:12:00,
2013-03-31 11:22:00,48.0,32.0,-100.00,SW,228,3.0,5.0,54,0.00,,,-99.99,,2013-03-31 17:22:00,
2013-03-31 11:32:00,49.0,34.0,-100.00,WSW,258,2.0,4.0,56,0.00,,,-99.99,,2013-03-31 17:32:00,
2013-03-31 11:42:00,49.0,34.0,-100.00,WSW,258,2.0,4.0,56,0.00,,,-99.99,,2013-03-31 17:42:00,
2013-03-31 11:52:00,49.0,34.0,-100.00,WSW,258,2.0,4.0,56,0.00,,,-99.99,,2013-03-31 17:52:00,
2013-03-31 12:02:00,52.0,40.0,-100.00,NNW,329,4.0,6.0,64,0.00,,,-99.99,,2013-03-31 18:02:00,
2013-03-31 12:12:00,52.0,40.0,-100.00,NNW,329,4.0,6.0,64,0.00,,,-99.99,,2013-03-31 18:12:00,
2013-03-31 12:22:00,50.0,37.0,-100.00,NNW,337,6.0,9.0,60,0.00,,,-99.99,,2013-03-31 18:22:00,
2013-03-31 12:32:00,50.0,36.0,-100.00,NNW,330,5.0,7.0,59,0.00,,,-99.99,,2013-03-31 18:32:00,
2013-03-31 12:42:00,50.0,36.0,-100.00,NNW,330,5.0,7.0,59,0.00,,,-99.99,,2013-03-31 18:42:00,
2013-03-31 12:53:00,51.0,37.0,-100.00,North,354,7.0,9.0,59,0.00,,,-99.99,,2013-03-31 18:53:00,
2013-03-31 13:03:00,51.0,31.0,-100.00,NW,324,7.0,10.0,47,0.00,,,-99.99,,2013-03-31 19:03:00,
2013-03-31 13:12:00,51.0,31.0,-100.00,NW,324,7.0,10.0,47,0.00,,,-99.99,,2013-03-31 19:12:00,
2013-03-31 13:22:00,50.0,30.0,-100.00,NNW,331,7.0,11.0,46,0.00,,,-99.99,,2013-03-31 19:22:00,
2013-03-31 13:33:00,52.0,38.0,-100.00,NNW,332,8.0,14.0,59,0.00,,,-99.99,,2013-03-31 19:33:00,
2013-03-31 13:42:00,52.0,38.0,-100.00,NNW,332,8.0,14.0,59,0.00,,,-99.99,,2013-03-31 19:42:00,
2013-03-31 13:54:00,52.0,32.0,-100.00,NW,323,6.0,11.0,47,0.00,,,-99.99,,2013-03-31 19:54:00,
2013-03-31 14:02:00,53.0,34.0,-100.00,NW,318,9.0,13.0,49,0.00,,,-99.99,,2013-03-31 20:02:00,
2013-03-31 14:12:00,53.0,34.0,-100.00,NW,318,9.0,13.0,49,0.00,,,-99.99,,2013-03-31 20:12:00,
2013-03-31 14:22:00,53.0,34.0,-100.00,NW,318,9.0,13.0,49,0.00,,,-99.99,,2013-03-31 20:22:00,
2013-03-31 14:33:00,53.0,38.0,-100.00,NW,318,9.0,13.0,57,0.00,,,-99.99,,2013-03-31 20:33:00,
2013-03-31 14:43:00,53.0,38.0,-100.00,NW,318,9.0,13.0,57,0.00,,,-99.99,,2013-03-31 20:43:00,
2013-03-31 14:53:00,53.0,39.0,-100.00,NNW,335,7.0,12.0,58,0.00,,,-99.99,,2013-03-31 20:53:00,
2013-03-31 15:02:00,53.0,39.0,-100.00,NW,325,8.0,14.0,59,0.00,,,-99.99,,2013-03-31 21:02:00,
2013-03-31 15:12:00,53.0,39.0,-100.00,NW,325,8.0,14.0,59,0.00,,,-99.99,,2013-03-31 21:12:00,
2013-03-31 15:22:00,55.0,42.0,-100.00,NNW,333,6.0,11.0,62,0.00,,,-99.99,,2013-03-31 21:22:00,
2013-03-31 15:33:00,55.0,35.0,-100.00,NNW,330,8.0,11.0,47,0.00,,,-99.99,,2013-03-31 21:33:00,
2013-03-31 15:43:00,55.0,35.0,-100.00,NNW,330,8.0,11.0,47,0.00,,,-99.99,,2013-03-31 21:43:00,
2013-03-31 15:53:00,55.0,35.0,-100.00,NNW,330,8.0,11.0,47,0.00,,,-99.99,,2013-03-31 21:53:00,
2013-03-31 16:03:00,55.0,32.0,-100.00,NW,315,8.0,12.0,42,0.00,,,-99.99,,2013-03-31 22:03:00,
2013-03-31 16:13:00,55.0,32.0,-100.00,NW,315,8.0,12.0,42,0.00,,,-99.99,,2013-03-31 22:13:00,
2013-03-31 16:23:00,55.0,37.0,-100.00,NW,313,5.0,10.0,51,0.00,,,-99.99,,2013-03-31 22:23:00,
2013-03-31 16:33:00,56.0,28.0,-100.00,NW,320,6.0,11.0,34,0.00,,,-99.99,,2013-03-31 22:33:00,
2013-03-31 16:42:00,56.0,28.0,-100.00,NW,320,6.0,11.0,34,0.00,,,-99.99,,2013-03-31 22:42:00,
2013-03-31 16:53:00,55.0,38.0,-100.00,NW,315,6.0,10.0,52,0.00,,,-99.99,,2013-03-31 22:53:00,
2013-03-31 17:03:00,55.0,36.0,-100.00,NW,317,7.0,13.0,49,0.00,,,-99.99,,2013-03-31 23:03:00,
2013-03-31 17:13:00,55.0,36.0,-100.00,NW,317,7.0,13.0,49,0.00,,,-99.99,,2013-03-31 23:13:00,
2013-03-31 17:22:00,53.0,38.0,-100.00,NW,311,8.0,13.0,57,0.00,,,-99.99,,2013-03-31 23:22:00,
2013-03-31 17:32:00,52.0,42.0,-100.00,NW,309,6.0,11.0,68,0.00,,,-99.99,,2013-03-31 23:32:00,
2013-03-31 17:42:00,52.0,42.0,-100.00,NW,309,6.0,11.0,68,0.00,,,-99.99,,2013-03-31 23:42:00,
2013-03-31 17:53:00,51.0,34.0,-100.00,NW,320,7.0,10.0,51,0.00,,,-99.99,,2013-03-31 23:53:00,
2013-03-31 18:02:00,51.0,30.0,-100.00,NW,321,5.0,8.0,44,0.00,,,-99.99,,2013-04-01 00:02:00,
2013-03-31 18:12:00,51.0,30.0,-100.00,NW,321,5.0,8.0,44,0.00,,,-99.99,,2013-04-01 00:12:00,
2013-03-31 18:22:00,51.0,33.0,-100.00,WNW,299,4.0,7.0,49,0.00,,,-99.99,,2013-04-01 00:22:00,
2013-03-31 18:32:00,51.0,34.0,-100.00,WNW,301,5.0,8.0,53,0.00,,,-99.99,,2013-04-01 00:32:00,
2013-03-31 18:42:00,51.0,34.0,-100.00,WNW,301,5.0,8.0,53,0.00,,,-99.99,,2013-04-01 00:42:00,
2013-03-31 18:53:00,51.0,30.0,-100.00,WNW,292,4.0,6.0,45,0.00,,,-99.99,,2013-04-01 00:53:00,
2013-03-31 19:02:00,51.0,35.0,-100.00,West,271,3.0,6.0,54,0.00,,,-99.99,,2013-04-01 01:02:00,
2013-03-31 19:12:00,51.0,35.0,-100.00,West,271,3.0,6.0,54,0.00,,,-99.99,,2013-04-01 01:12:00,
2013-03-31 19:22:00,46.0,25.0,-100.00,NNW,346,0.0,1.0,43,0.00,,,-99.99,,2013-04-01 01:22:00,
2013-03-31 19:32:00,43.0,30.0,-100.00,NNW,337,0.0,2.0,59,0.00,,,-99.99,,2013-04-01 01:32:00,
2013-03-31 19:42:00,43.0,30.0,-100.00,NNW,337,0.0,2.0,59,0.00,,,-99.99,,2013-04-01 01:42:00,
2013-03-31 19:53:00,40.0,25.0,-100.00,NW,315,0.0,2.0,55,0.00,,,-99.99,,2013-04-01 01:53:00,
2013-03-31 20:02:00,38.0,20.0,-100.00,NNW,330,0.0,0.0,47,0.00,,,-99.99,,2013-04-01 02:02:00,
2013-03-31 20:12:00,38.0,20.0,-100.00,NNW,330,0.0,0.0,47,0.00,,,-99.99,,2013-04-01 02:12:00,
2013-03-31 20:22:00,36.0,20.0,-100.00,NNW,333,1.0,2.0,51,0.00,,,-99.99,,2013-04-01 02:22:00,
2013-03-31 20:32:00,36.0,23.0,-100.00,ESE,103,3.0,5.0,60,0.00,,,-99.99,,2013-04-01 02:32:00,
2013-03-31 20:42:00,36.0,23.0,-100.00,ESE,103,3.0,5.0,60,0.00,,,-99.99,,2013-04-01 02:42:00,
2013-03-31 20:53:00,37.0,24.0,-100.00,ESE,108,5.0,7.0,60,0.00,,,-99.99,,2013-04-01 02:53:00,
2013-03-31 21:02:00,35.0,23.0,-100.00,ESE,121,4.0,7.0,61,0.00,,,-99.99,,2013-04-01 03:02:00,
2013-03-31 21:12:00,35.0,23.0,-100.00,ESE,121,4.0,7.0,61,0.00,,,-99.99,,2013-04-01 03:12:00,
2013-03-31 21:22:00,35.0,26.0,-100.00,ESE,115,5.0,8.0,70,0.00,,,-99.99,,2013-04-01 03:22:00,
2013-03-31 21:33:00,35.0,24.0,-100.00,ESE,122,4.0,7.0,63,0.00,,,-99.99,,2013-04-01 03:33:00,
2013-03-31 21:43:00,35.0,24.0,-100.00,ESE,122,4.0,7.0,63,0.00,,,-99.99,,2013-04-01 03:43:00,
2013-03-31 21:53:00,32.0,25.0,-100.00,SE,127,2.0,4.0,74,0.00,,,-99.99,,2013-04-01 03:53:00,
2013-03-31 22:02:00,32.0,28.0,-100.00,SE,129,3.0,5.0,85,0.00,,,-99.99,,2013-04-01 04:02:00,
2013-03-31 22:13:00,32.0,28.0,-100.00,SE,129,3.0,5.0,85,0.00,,,-99.99,,2013-04-01 04:13:00,
2013-03-31 22:23:00,31.0,25.0,-100.00,SE,128,4.0,6.0,77,0.00,,,-99.99,,2013-04-01 04:23:00,
2013-03-31 22:32:00,30.0,21.0,-100.00,ESE,121,5.0,7.0,68,0.00,,,-99.99,,2013-04-01 04:32:00,
2013-03-31 22:43:00,30.0,21.0,-100.00,ESE,121,5.0,7.0,68,0.00,,,-99.99,,2013-04-01 04:43:00,
2013-03-31 22:52:00,29.0,24.0,-100.00,SE,125,5.0,7.0,81,0.00,,,-99.99,,2013-04-01 04:52:00,
2013-03-31 23:02:00,28.0,20.0,-100.00,ESE,116,5.0,7.0,71,0.00,,,-99.99,,2013-04-01 05:02:00,
2013-03-31 23:12:00,28.0,20.0,-100.00,ESE,116,5.0,7.0,71,0.00,,,-99.99,,2013-04-01 05:12:00,
2013-03-31 23:22:00,29.0,23.0,-100.00,SE,124,4.0,7.0,78,0.00,,,-99.99,,2013-04-01 05:22:00,
2013-03-31 23:32:00,29.0,22.0,-100.00,SE,141,3.0,5.0,75,0.00,,,-99.99,,2013-04-01 05:32:00,
2013-03-31 23:42:00,29.0,22.0,-100.00,SE,141,3.0,5.0,75,0.00,,,-99.99,,2013-04-01 05:42:00,
2013-03-31 23:53:00,27.0,22.0,-100.00,ESE,120,5.0,7.0,82,0.00,,,-99.99,,2013-04-01 05:53:00,